EDT,Max TemperatureF,Mean TemperatureF,Min TemperatureF,Max Dew PointF,MeanDew PointF,Min DewpointF,Max Humidity, Mean Humidity, Min Humidity, Max Sea Level PressureIn, Mean Sea Level PressureIn, Min Sea Level PressureIn, Max VisibilityMiles, Mean VisibilityMiles, Min VisibilityMiles, Max Wind SpeedMPH, Mean Wind SpeedMPH, Max Gust SpeedMPH,PrecipitationIn, CloudCover, Events, WindDirDegrees
2013-8-1,78,68,59,67,63,57,100,89,69,30.04,29.94,29.85,10,7,1,10,3,21,0.17,6,Rain,177
2013-8-2,84,74,64,65,62,57,100,79,40,29.88,29.83,29.79,10,7,2,15,3,20,0.18,5,Rain,248
2013-8-3,82,69,59,64,60,56,100,82,45,29.88,29.85,29.80,10,7,0,10,3,,0.00,2,Fog,202
2013-8-4,80,68,55,59,55,53,100,73,40,29.94,29.86,29.82,10,9,2,31,5,41,0.08,2,Rain-Thunderstorm,307
2013-8-5,78,64,52,54,49,40,97,62,29,30.06,30.00,29.94,10,10,10,16,5,23,0.00,0,,327
2013-8-6,80,63,48,57,52,47,97,66,38,30.14,30.11,30.06,10,10,10,10,2,,0.00,1,,154
2013-8-7,79,66,55,63,58,54,100,75,43,30.19,30.14,30.09,10,9,2,12,3,17,0.00,5,,170
2013-8-8,82,74,68,70,68,62,94,82,69,30.07,30.04,30.00,10,10,9,12,8,,0.00,7,Rain,178
2013-8-9,78,74,69,75,71,69,100,94,87,30.01,29.86,29.76,10,4,0,16,6,25,3.17,7,Fog-Rain-Thunderstorm,166
2013-8-10,82,73,64,70,58,45,100,64,38,30.04,29.92,29.83,10,9,1,14,6,24,0.00,1,,306
2013-8-11,81,65,50,61,53,46,97,64,38,30.11,30.06,30.02,10,10,10,12,4,,0.00,1,,304
2013-8-12,82,70,60,64,59,56,96,71,44,30.04,29.98,29.92,10,10,10,8,1,,0.00,3,,164
2013-8-13,75,68,64,70,65,61,97,89,73,29.92,29.78,29.69,10,7,2,10,3,,0.33,6,Rain-Thunderstorm,191
2013-8-14,73,65,57,59,51,48,81,62,46,30.00,29.82,29.73,10,10,10,21,9,26,0.00,3,,305
2013-8-15,77,64,51,54,50,47,96,65,34,30.10,30.07,30.02,10,10,10,12,4,18,0.00,1,,272
2013-8-16,80,68,55,61,54,47,97,63,31,30.21,30.17,30.14,10,10,6,9,2,,0.00,1,,215
2013-8-17,81,67,54,63,56,50,97,73,35,30.30,30.26,30.22,10,10,4,7,2,,0.00,0,,8
2013-8-18,77,67,59,65,60,57,97,83,58,30.28,30.22,30.10,10,8,1,5,1,,0.00,0,,87
2013-8-19,81,70,59,62,59,56,100,79,43,30.09,30.05,30.00,10,6,1,9,3,,0.01,1,,248
2013-8-20,86,70,57,65,59,55,100,77,40,30.12,30.07,30.02,10,7,2,12,2,18,0.00,0,,281
2013-8-21,88,72,57,67,60,57,100,85,37,30.17,30.13,30.03,10,5,0,9,1,,0.00,0,Fog,246
2013-8-22,82,71,60,71,64,59,100,85,60,30.04,29.96,29.85,10,7,1,15,3,20,0.00,1,Rain-Thunderstorm,189
2013-8-23,82,70,59,67,58,52,87,64,36,30.15,29.98,29.86,10,10,10,15,6,21,0.03,1,,356
2013-8-24,79,65,51,59,51,47,96,68,34,30.35,30.28,30.17,10,10,10,10,2,,0.00,0,,17
2013-8-25,84,66,50,58,52,48,100,77,31,30.39,30.32,30.19,10,7,0,12,1,16,0.00,1,Fog,187
2013-8-26,81,72,64,68,63,55,96,79,54,30.19,30.01,29.90,10,8,2,13,5,,0.37,6,Rain,181
2013-8-27,86,78,69,71,68,66,96,79,51,29.90,29.86,29.83,10,9,2,12,5,,0.00,5,Rain,357
2013-8-28,87,76,66,69,66,64,100,86,55,29.92,29.88,29.83,10,6,0,7,2,,0.00,4,Fog-Rain,50
2013-8-29,75,70,64,68,63,60,94,81,69,30.06,30.02,29.92,10,10,10,10,6,18,0.00,7,,39
2013-8-30,86,74,64,68,64,61,90,77,46,30.02,29.93,29.84,10,10,10,9,2,,0.00,5,,187
2013-8-31,80,74,70,73,71,67,94,87,77,29.83,29.81,29.78,10,7,3,13,5,18,0.01,6,Rain-Thunderstorm,172